Time,TemperatureF,DewpointF,PressureIn,WindDirection,WindDirectionDegrees,WindSpeedMPH,WindSpeedGustMPH,Humidity,HourlyPrecipIn,Conditions,Clouds,dailyrainin,SoftwareType,DateUTC
2013-09-02 00:00:00,57.8,52.0,29.84,North,5,0.0,0.0,81,0.00,,SKC,0.00,VWS V14.01,2013-09-02 05:00:00,
2013-09-02 00:05:00,57.6,51.8,29.84,North,5,0.0,0.0,81,0.00,,SKC,0.00,VWS V14.01,2013-09-02 05:05:00,
2013-09-02 00:10:00,57.4,51.6,29.84,North,5,0.0,0.0,81,0.00,,SKC,0.00,VWS V14.01,2013-09-02 05:10:00,
2013-09-02 00:15:00,57.1,51.3,29.84,North,5,0.0,0.0,81,0.00,,SKC,0.00,VWS V14.01,2013-09-02 05:15:00,
2013-09-02 00:20:00,56.8,51.0,29.84,North,5,0.0,0.0,81,0.00,,SKC,0.00,VWS V14.01,2013-09-02 05:20:00,
2013-09-02 00:26:00,56.6,50.8,29.84,North,5,0.0,0.0,81,0.00,,SKC,0.00,VWS V14.01,2013-09-02 05:26:00,
2013-09-02 00:30:00,59.4,53.2,29.84,North,5,0.0,0.0,80,0.00,,SKC,0.00,VWS V14.01,2013-09-02 05:30:00,
2013-09-02 00:31:00,56.3,50.9,29.84,North,5,0.0,0.0,82,0.00,,SKC,0.00,VWS V14.01,2013-09-02 05:31:00,
2013-09-02 00:36:00,56.2,50.8,29.84,North,5,0.0,0.0,82,0.00,,SKC,0.00,VWS V14.01,2013-09-02 05:36:00,
2013-09-02 00:41:00,56.1,50.7,29.84,North,5,0.0,0.0,82,0.00,,SKC,0.00,VWS V14.01,2013-09-02 05:41:00,
2013-09-02 00:46:00,56.0,50.6,29.85,North,5,0.0,0.0,82,0.00,,SKC,0.00,VWS V14.01,2013-09-02 05:46:00,
2013-09-02 00:51:00,55.8,50.7,29.84,North,5,0.0,0.0,83,0.00,,SKC,0.00,VWS V14.01,2013-09-02 05:51:00,
2013-09-02 00:56:00,55.6,50.5,29.84,North,5,0.0,0.0,83,0.00,,SKC,0.00,VWS V14.01,2013-09-02 05:56:00,
2013-09-02 01:00:00,57.8,52.0,29.84,North,5,0.0,0.0,81,0.00,,SKC,0.00,VWS V14.01,2013-09-02 06:00:00,
2013-09-02 01:01:00,55.4,50.7,29.84,North,5,0.0,0.0,84,0.00,,SKC,0.00,VWS V14.01,2013-09-02 06:01:00,
2013-09-02 01:06:00,55.3,50.6,29.84,North,5,0.0,0.0,84,0.00,,SKC,0.00,VWS V14.01,2013-09-02 06:06:00,
2013-09-02 01:11:00,55.3,50.9,29.85,North,5,0.0,0.0,85,0.00,,SKC,0.00,VWS V14.01,2013-09-02 06:11:00,
2013-09-02 01:16:00,55.3,50.9,29.85,North,5,0.0,0.0,85,0.00,,SKC,0.00,VWS V14.01,2013-09-02 06:16:00,
2013-09-02 01:21:00,55.3,51.2,29.85,North,360,0.0,0.0,86,0.00,,SKC,0.00,VWS V14.01,2013-09-02 06:21:00,
2013-09-02 01:26:00,55.4,51.3,29.85,North,360,0.0,0.0,86,0.00,,SKC,0.00,VWS V14.01,2013-09-02 06:26:00,
2013-09-02 01:30:00,56.3,50.9,29.84,North,5,0.0,0.0,82,0.00,,SKC,0.00,VWS V14.01,2013-09-02 06:30:00,
2013-09-02 01:31:00,55.5,51.7,29.85,North,360,0.0,0.0,87,0.00,,SKC,0.00,VWS V14.01,2013-09-02 06:31:00,
2013-09-02 01:36:00,55.7,51.9,29.85,North,360,0.0,0.0,87,0.00,,SKC,0.00,VWS V14.01,2013-09-02 06:36:00,
2013-09-02 01:41:00,55.8,52.0,29.85,North,360,0.0,0.0,87,0.00,,SKC,0.00,VWS V14.01,2013-09-02 06:41:00,
2013-09-02 01:46:00,56.0,52.2,29.85,North,360,0.0,0.0,87,0.00,,SKC,0.00,VWS V14.01,2013-09-02 06:46:00,
2013-09-02 01:51:00,56.2,52.4,29.85,North,360,0.0,0.0,87,0.00,,SKC,0.00,VWS V14.01,2013-09-02 06:51:00,
2013-09-02 01:56:00,56.3,52.8,29.85,North,360,0.0,0.0,88,0.00,,SKC,0.00,VWS V14.01,2013-09-02 06:56:00,
2013-09-02 02:00:00,55.5,50.8,29.84,North,5,0.0,0.0,84,0.00,,SKC,0.00,VWS V14.01,2013-09-02 07:00:00,
2013-09-02 02:02:00,56.5,53.0,29.85,North,360,0.0,0.0,88,0.00,,SKC,0.00,VWS V14.01,2013-09-02 07:02:00,
2013-09-02 02:07:00,56.6,53.1,29.85,North,360,0.0,0.0,88,0.00,,SKC,0.00,VWS V14.01,2013-09-02 07:07:00,
2013-09-02 02:12:00,56.7,53.2,29.85,North,360,0.0,0.0,88,0.00,,SKC,0.00,VWS V14.01,2013-09-02 07:12:00,
2013-09-02 02:17:00,56.8,53.0,29.86,North,360,0.0,0.0,87,0.00,,SKC,0.00,VWS V14.01,2013-09-02 07:17:00,
2013-09-02 02:22:00,56.9,53.4,29.86,North,360,0.0,0.0,88,0.00,,SKC,0.00,VWS V14.01,2013-09-02 07:22:00,
2013-09-02 02:27:00,57.0,53.2,29.86,North,360,0.0,0.0,87,0.00,,SKC,0.00,VWS V14.01,2013-09-02 07:27:00,
2013-09-02 02:30:00,55.5,51.7,29.85,North,360,0.0,0.0,87,0.00,,SKC,0.00,VWS V14.01,2013-09-02 07:30:00,
2013-09-02 02:32:00,57.0,53.2,29.86,North,360,0.0,0.0,87,0.00,,SKC,0.00,VWS V14.01,2013-09-02 07:32:00,
2013-09-02 02:37:00,57.2,53.7,29.86,North,360,0.0,0.0,88,0.00,,SKC,0.00,VWS V14.01,2013-09-02 07:37:00,
2013-09-02 02:42:00,57.2,53.7,29.86,North,5,0.0,0.0,88,0.00,,SKC,0.00,VWS V14.01,2013-09-02 07:42:00,
2013-09-02 02:47:00,57.1,53.6,29.86,North,355,0.0,0.0,88,0.00,,SKC,0.00,VWS V14.01,2013-09-02 07:47:00,
2013-09-02 02:52:00,57.1,53.3,29.85,North,360,0.0,0.0,87,0.00,,SKC,0.00,VWS V14.01,2013-09-02 07:52:00,
2013-09-02 02:57:00,57.1,53.3,29.85,North,360,0.0,0.0,87,0.00,,SKC,0.00,VWS V14.01,2013-09-02 07:57:00,
2013-09-02 03:00:00,56.5,53.0,29.85,North,360,0.0,0.0,88,0.00,,SKC,0.00,VWS V14.01,2013-09-02 08:00:00,
2013-09-02 03:02:00,57.0,53.2,29.86,North,360,0.0,0.0,87,0.00,,SKC,0.00,VWS V14.01,2013-09-02 08:02:00,
2013-09-02 03:07:00,56.9,52.8,29.86,North,360,0.0,0.0,86,0.00,,SKC,0.00,VWS V14.01,2013-09-02 08:07:00,
2013-09-02 03:12:00,56.8,52.7,29.86,North,360,0.0,0.0,86,0.00,,SKC,0.00,VWS V14.01,2013-09-02 08:12:00,
2013-09-02 03:17:00,56.8,52.7,29.86,North,5,0.0,0.0,86,0.00,,SKC,0.00,VWS V14.01,2013-09-02 08:17:00,
2013-09-02 03:22:00,56.7,52.6,29.86,North,5,0.0,0.0,86,0.00,,SKC,0.00,VWS V14.01,2013-09-02 08:22:00,
2013-09-02 03:27:00,56.6,52.2,29.86,North,5,0.0,0.0,85,0.00,,SKC,0.00,VWS V14.01,2013-09-02 08:27:00,
2013-09-02 03:30:00,57.0,53.5,29.86,North,9,0.0,0.0,88,0.00,,SKC,0.00,VWS V14.01,2013-09-02 08:30:00,
2013-09-02 03:32:00,56.5,52.0,29.86,North,5,0.0,0.0,85,0.00,,SKC,0.00,VWS V14.01,2013-09-02 08:32:00,
2013-09-02 03:37:00,56.4,52.0,29.87,North,5,0.0,0.0,85,0.00,,SKC,0.00,VWS V14.01,2013-09-02 08:37:00,
2013-09-02 03:42:00,56.4,52.0,29.87,North,5,0.0,0.0,85,0.00,,SKC,0.00,VWS V14.01,2013-09-02 08:42:00,
2013-09-02 03:47:00,56.4,52.0,29.87,North,5,0.0,0.0,85,0.00,,SKC,0.00,VWS V14.01,2013-09-02 08:47:00,
2013-09-02 03:52:00,56.3,51.9,29.87,North,5,0.0,0.0,85,0.00,,SKC,0.00,VWS V14.01,2013-09-02 08:52:00,
2013-09-02 03:57:00,56.3,51.9,29.88,North,5,0.0,0.0,85,0.00,,SKC,0.00,VWS V14.01,2013-09-02 08:57:00,
2013-09-02 04:00:00,57.0,53.2,29.86,North,360,0.0,0.0,87,0.00,,SKC,0.00,VWS V14.01,2013-09-02 09:00:00,
2013-09-02 04:02:00,56.2,51.8,29.88,North,5,0.0,0.0,85,0.00,,SKC,0.00,VWS V14.01,2013-09-02 09:02:00,
2013-09-02 04:07:00,56.2,51.8,29.88,North,5,0.0,0.0,85,0.00,,SKC,0.00,VWS V14.01,2013-09-02 09:07:00,
2013-09-02 04:12:00,56.1,51.7,29.88,North,5,0.0,0.0,85,0.00,,SKC,0.00,VWS V14.01,2013-09-02 09:12:00,
2013-09-02 04:18:00,56.1,51.3,29.88,North,5,0.0,0.0,84,0.00,,SKC,0.00,VWS V14.01,2013-09-02 09:18:00,
2013-09-02 04:23:00,56.0,51.6,29.88,North,5,0.0,0.0,85,0.00,,SKC,0.00,VWS V14.01,2013-09-02 09:23:00,
2013-09-02 04:28:00,55.9,51.5,29.88,North,5,0.0,0.0,85,0.00,,SKC,0.00,VWS V14.01,2013-09-02 09:28:00,
2013-09-02 04:30:00,56.5,52.0,29.86,North,5,0.0,0.0,85,0.00,,SKC,0.00,VWS V14.01,2013-09-02 09:30:00,
2013-09-02 04:33:00,55.8,51.0,29.88,North,5,0.0,0.0,84,0.00,,SKC,0.00,VWS V14.01,2013-09-02 09:33:00,
2013-09-02 04:38:00,55.7,51.0,29.88,North,5,0.0,0.0,84,0.00,,SKC,0.00,VWS V14.01,2013-09-02 09:38:00,
2013-09-02 04:43:00,55.7,51.0,29.88,North,5,0.0,0.0,84,0.00,,SKC,0.00,VWS V14.01,2013-09-02 09:43:00,
2013-09-02 04:48:00,55.7,51.0,29.88,North,5,0.0,0.0,84,0.00,,SKC,0.00,VWS V14.01,2013-09-02 09:48:00,
2013-09-02 04:53:00,55.7,50.6,29.89,North,355,0.0,0.0,83,0.00,,SKC,0.00,VWS V14.01,2013-09-02 09:53:00,
2013-09-02 04:58:00,55.7,50.6,29.89,NNW,345,0.0,0.0,83,0.00,,SKC,0.00,VWS V14.01,2013-09-02 09:58:00,
2013-09-02 05:00:00,56.3,51.9,29.88,North,5,0.0,0.0,85,0.00,,SKC,0.00,VWS V14.01,2013-09-02 10:00:00,
2013-09-02 05:03:00,55.7,50.6,29.89,NNW,345,0.0,0.0,83,0.00,,SKC,0.00,VWS V14.01,2013-09-02 10:03:00,
2013-09-02 05:08:00,55.7,50.6,29.89,NNW,345,0.0,0.0,83,0.00,,SKC,0.00,VWS V14.01,2013-09-02 10:08:00,
2013-09-02 05:13:00,55.8,50.7,29.89,NNW,346,0.0,0.0,83,0.00,,SKC,0.00,VWS V14.01,2013-09-02 10:13:00,
2013-09-02 05:18:00,55.7,50.6,29.89,NNW,346,0.0,0.0,83,0.00,,SKC,0.00,VWS V14.01,2013-09-02 10:18:00,
2013-09-02 05:23:00,55.7,50.6,29.89,NNW,346,0.0,0.0,83,0.00,,SKC,0.00,VWS V14.01,2013-09-02 10:23:00,
2013-09-02 05:28:00,55.7,50.6,29.89,NNW,346,0.0,0.0,83,0.00,,SKC,0.00,VWS V14.01,2013-09-02 10:28:00,
2013-09-02 05:30:00,55.8,51.4,29.88,North,5,0.0,0.0,85,0.00,,SKC,0.00,VWS V14.01,2013-09-02 10:30:00,
2013-09-02 05:33:00,55.7,50.6,29.89,NNW,346,0.0,0.0,83,0.00,,SKC,0.00,VWS V14.01,2013-09-02 10:33:00,
2013-09-02 05:38:00,55.7,50.6,29.89,NNW,346,0.0,0.0,83,0.00,,SKC,0.00,VWS V14.01,2013-09-02 10:38:00,
2013-09-02 05:43:00,55.7,50.6,29.89,NNW,346,0.0,0.0,83,0.00,,SKC,0.00,VWS V14.01,2013-09-02 10:43:00,
2013-09-02 05:48:00,55.7,50.6,29.89,NNW,346,0.0,0.0,83,0.00,,SKC,0.00,VWS V14.01,2013-09-02 10:48:00,
2013-09-02 05:53:00,55.7,50.6,29.89,NNW,346,0.0,0.0,83,0.00,,SKC,0.00,VWS V14.01,2013-09-02 10:53:00,
2013-09-02 05:58:00,55.7,51.0,29.89,NNW,346,0.0,0.0,84,0.00,,SKC,0.00,VWS V14.01,2013-09-02 10:58:00,
2013-09-02 06:00:00,55.7,50.6,29.89,NNW,345,0.0,0.0,83,0.00,,SKC,0.00,VWS V14.01,2013-09-02 11:00:00,
2013-09-02 06:03:00,55.7,51.0,29.90,NNW,346,0.0,0.0,84,0.00,,SKC,0.00,VWS V14.01,2013-09-02 11:03:00,
2013-09-02 06:08:00,55.7,50.6,29.90,NNW,346,0.0,0.0,83,0.00,,SKC,0.00,VWS V14.01,2013-09-02 11:08:00,
2013-09-02 06:13:00,55.7,50.6,29.90,NNW,346,0.0,0.0,83,0.00,,SKC,0.00,VWS V14.01,2013-09-02 11:13:00,
2013-09-02 06:18:00,55.7,50.6,29.90,NNW,347,0.0,0.0,83,0.00,,SKC,0.00,VWS V14.01,2013-09-02 11:18:00,
2013-09-02 06:23:00,55.6,50.5,29.90,NNW,347,0.0,0.0,83,0.00,,SKC,0.00,VWS V14.01,2013-09-02 11:23:00,
2013-09-02 06:28:00,55.6,50.2,29.91,North,350,0.0,0.0,82,0.00,,SKC,0.00,VWS V14.01,2013-09-02 11:28:00,
2013-09-02 06:30:00,55.7,50.6,29.89,NNW,346,0.0,0.0,83,0.00,,SKC,0.00,VWS V14.01,2013-09-02 11:30:00,
2013-09-02 06:33:00,55.5,50.1,29.90,North,350,0.0,0.0,82,0.00,,SKC,0.00,VWS V14.01,2013-09-02 11:33:00,
2013-09-02 06:38:00,55.5,50.1,29.91,North,350,0.0,0.0,82,0.00,,SKC,0.00,VWS V14.01,2013-09-02 11:38:00,
2013-09-02 06:43:00,55.4,50.0,29.91,North,350,0.0,0.0,82,0.00,,SKC,0.00,VWS V14.01,2013-09-02 11:43:00,
2013-09-02 06:48:00,55.3,50.2,29.92,North,350,0.0,0.0,83,0.00,,SKC,0.00,VWS V14.01,2013-09-02 11:48:00,
2013-09-02 06:53:00,55.2,50.1,29.92,North,350,0.0,0.0,83,0.00,,SKC,0.00,VWS V14.01,2013-09-02 11:53:00,
2013-09-02 06:59:00,55.0,49.9,29.92,North,351,0.0,0.0,83,0.00,,SKC,0.00,VWS V14.01,2013-09-02 11:59:00,
2013-09-02 07:00:00,55.7,51.0,29.89,NNW,346,0.0,0.0,84,0.00,,SKC,0.00,VWS V14.01,2013-09-02 12:00:00,
2013-09-02 07:04:00,54.9,49.8,29.92,North,351,0.0,0.0,83,0.00,,SKC,0.00,VWS V14.01,2013-09-02 12:04:00,
2013-09-02 07:09:00,54.7,50.0,29.92,North,351,0.0,0.0,84,0.00,,SKC,0.00,VWS V14.01,2013-09-02 12:09:00,
2013-09-02 07:14:00,54.4,49.7,29.92,North,349,0.0,0.0,84,0.00,,SKC,0.00,VWS V14.01,2013-09-02 12:14:00,
2013-09-02 07:19:00,54.3,49.9,29.92,North,349,0.0,0.0,85,0.00,,SKC,0.00,VWS V14.01,2013-09-02 12:19:00,
2013-09-02 07:24:00,54.3,50.2,29.92,North,349,0.0,0.0,86,0.00,,SKC,0.00,VWS V14.01,2013-09-02 12:24:00,
2013-09-02 07:29:00,54.3,50.2,29.93,North,349,0.0,0.0,86,0.00,,SKC,0.00,VWS V14.01,2013-09-02 12:29:00,
2013-09-02 07:30:00,55.5,50.1,29.90,North,349,0.0,0.0,82,0.00,,SKC,0.00,VWS V14.01,2013-09-02 12:30:00,
2013-09-02 07:34:00,54.3,50.2,29.93,North,351,0.0,0.0,86,0.00,,SKC,0.00,VWS V14.01,2013-09-02 12:34:00,
2013-09-02 07:39:00,54.4,50.0,29.93,North,351,0.0,0.0,85,0.00,,SKC,0.00,VWS V14.01,2013-09-02 12:39:00,
2013-09-02 07:45:00,54.5,50.1,29.93,North,350,0.0,0.0,85,0.00,,SKC,0.00,VWS V14.01,2013-09-02 12:45:00,
2013-09-02 07:50:00,54.5,49.8,29.94,North,5,0.0,0.0,84,0.00,,SKC,0.00,VWS V14.01,2013-09-02 12:50:00,
2013-09-02 07:55:00,54.5,49.8,29.94,North,9,0.0,0.0,84,0.00,,SKC,0.00,VWS V14.01,2013-09-02 12:55:00,
2013-09-02 08:00:00,54.6,49.9,29.94,North,360,0.0,0.0,84,0.00,,SKC,0.00,VWS V14.01,2013-09-02 13:00:00,
2013-09-02 08:05:00,54.7,50.0,29.94,NNE,20,0.0,0.0,84,0.00,,SKC,0.00,VWS V14.01,2013-09-02 13:05:00,
2013-09-02 08:10:00,54.7,50.0,29.94,North,5,0.0,0.0,84,0.00,,SKC,0.00,VWS V14.01,2013-09-02 13:10:00,
2013-09-02 08:15:00,54.9,50.5,29.94,North,10,0.0,0.0,85,0.00,,SKC,0.00,VWS V14.01,2013-09-02 13:15:00,
2013-09-02 08:20:00,55.1,51.0,29.94,North,10,0.0,0.0,86,0.00,,SKC,0.00,VWS V14.01,2013-09-02 13:20:00,
2013-09-02 08:25:00,55.3,50.6,29.94,NNE,15,0.0,0.0,84,0.00,,SKC,0.00,VWS V14.01,2013-09-02 13:25:00,
2013-09-02 08:30:00,55.3,50.6,29.94,North,355,0.0,0.0,84,0.00,,SKC,0.00,VWS V14.01,2013-09-02 13:30:00,
2013-09-02 08:35:00,55.4,50.7,29.94,NNE,16,0.0,0.0,84,0.00,,SKC,0.00,VWS V14.01,2013-09-02 13:35:00,
2013-09-02 08:41:00,55.5,50.4,29.94,NNW,347,0.0,0.0,83,0.00,,SKC,0.00,VWS V14.01,2013-09-02 13:41:00,
2013-09-02 08:46:00,55.6,50.2,29.94,North,351,0.0,0.0,82,0.00,,SKC,0.00,VWS V14.01,2013-09-02 13:46:00,
2013-09-02 08:51:00,55.7,50.6,29.94,North,5,0.0,0.0,83,0.00,,SKC,0.00,VWS V14.01,2013-09-02 13:51:00,
2013-09-02 08:56:00,56.1,51.0,29.94,North,360,0.0,0.0,83,0.00,,SKC,0.00,VWS V14.01,2013-09-02 13:56:00,
2013-09-02 09:00:00,54.6,49.9,29.94,North,360,0.0,0.0,84,0.00,,SKC,0.00,VWS V14.01,2013-09-02 14:00:00,
2013-09-02 09:01:00,56.4,51.0,29.94,North,355,0.0,0.0,82,0.00,,SKC,0.00,VWS V14.01,2013-09-02 14:01:00,
2013-09-02 09:06:00,56.4,50.3,29.95,North,355,0.0,0.0,80,0.00,,SKC,0.00,VWS V14.01,2013-09-02 14:06:00,
2013-09-02 09:11:00,56.3,50.5,29.95,North,5,0.0,0.0,81,0.00,,SKC,0.00,VWS V14.01,2013-09-02 14:11:00,
2013-09-02 09:16:00,56.4,51.0,29.95,North,5,0.0,0.0,82,0.00,,SKC,0.00,VWS V14.01,2013-09-02 14:16:00,
2013-09-02 09:21:00,56.4,51.0,29.95,North,5,0.0,0.0,82,0.00,,SKC,0.00,VWS V14.01,2013-09-02 14:21:00,
2013-09-02 09:26:00,56.6,51.5,29.95,North,5,0.0,0.0,83,0.00,,SKC,0.00,VWS V14.01,2013-09-02 14:26:00,
2013-09-02 09:30:00,55.3,50.6,29.94,North,355,0.0,0.0,84,0.00,,SKC,0.00,VWS V14.01,2013-09-02 14:30:00,
2013-09-02 09:31:00,56.7,51.3,29.96,North,5,0.0,0.0,82,0.00,,SKC,0.00,VWS V14.01,2013-09-02 14:31:00,
2013-09-02 09:36:00,56.8,51.4,29.96,North,5,0.0,0.0,82,0.00,,SKC,0.00,VWS V14.01,2013-09-02 14:36:00,
2013-09-02 09:41:00,56.8,50.7,29.96,North,5,0.0,0.0,80,0.00,,SKC,0.00,VWS V14.01,2013-09-02 14:41:00,
2013-09-02 09:46:00,56.8,50.7,29.95,North,11,0.0,0.0,80,0.00,,SKC,0.00,VWS V14.01,2013-09-02 14:46:00,
2013-09-02 09:51:00,56.7,50.6,29.96,North,360,0.0,0.0,80,0.00,,SKC,0.00,VWS V14.01,2013-09-02 14:51:00,
2013-09-02 09:56:00,56.6,50.5,29.95,NNW,341,0.0,0.0,80,0.00,,SKC,0.00,VWS V14.01,2013-09-02 14:56:00,
2013-09-02 10:00:00,56.4,51.0,29.94,North,355,0.0,0.0,82,0.00,,SKC,0.00,VWS V14.01,2013-09-02 15:00:00,
2013-09-02 10:01:00,56.5,51.1,29.96,NNE,18,0.0,0.0,82,0.00,,SKC,0.00,VWS V14.01,2013-09-02 15:01:00,
2013-09-02 10:06:00,56.6,51.5,29.96,NNE,22,0.0,0.0,83,0.00,,SKC,0.00,VWS V14.01,2013-09-02 15:06:00,
2013-09-02 10:11:00,56.7,51.6,29.96,North,11,0.0,0.0,83,0.00,,SKC,0.00,VWS V14.01,2013-09-02 15:11:00,
2013-09-02 10:16:00,56.8,51.0,29.97,North,360,0.0,0.0,81,0.00,,SKC,0.00,VWS V14.01,2013-09-02 15:16:00,
2013-09-02 10:21:00,56.8,51.0,29.97,North,355,0.0,0.0,81,0.00,,SKC,0.00,VWS V14.01,2013-09-02 15:21:00,
2013-09-02 10:26:00,56.9,51.5,29.97,North,360,0.0,0.0,82,0.00,,SKC,0.00,VWS V14.01,2013-09-02 15:26:00,
2013-09-02 10:30:00,56.7,51.3,29.95,North,5,0.0,0.0,82,0.00,,SKC,0.00,VWS V14.01,2013-09-02 15:30:00,
2013-09-02 10:31:00,57.0,50.9,29.97,North,355,0.0,0.0,80,0.00,,SKC,0.00,VWS V14.01,2013-09-02 15:31:00,
2013-09-02 10:36:00,57.1,51.7,29.97,North,5,0.0,0.0,82,0.00,,SKC,0.00,VWS V14.01,2013-09-02 15:36:00,
2013-09-02 10:41:00,57.1,52.0,29.97,North,11,0.0,0.0,83,0.00,,SKC,0.00,VWS V14.01,2013-09-02 15:41:00,
2013-09-02 10:47:00,57.1,52.0,29.97,NNE,14,0.0,0.0,83,0.00,,SKC,0.00,VWS V14.01,2013-09-02 15:47:00,
2013-09-02 10:52:00,57.1,51.7,29.97,NNE,13,0.0,0.0,82,0.00,,SKC,0.00,VWS V14.01,2013-09-02 15:52:00,
2013-09-02 10:57:00,57.3,51.9,29.97,NNE,13,0.0,0.0,82,0.00,,SKC,0.00,VWS V14.01,2013-09-02 15:57:00,
2013-09-02 11:00:00,56.5,51.1,29.96,NNE,18,0.0,0.0,82,0.00,,SKC,0.00,VWS V14.01,2013-09-02 16:00:00,
2013-09-02 11:02:00,57.4,52.0,29.97,NNE,13,0.0,0.0,82,0.00,,SKC,0.00,VWS V14.01,2013-09-02 16:02:00,
2013-09-02 11:07:00,57.7,52.2,29.97,NNE,23,0.0,0.0,82,0.00,,SKC,0.00,VWS V14.01,2013-09-02 16:07:00,
2013-09-02 11:12:00,57.8,52.0,29.97,North,360,0.0,0.0,81,0.00,,SKC,0.00,VWS V14.01,2013-09-02 16:12:00,
2013-09-02 11:17:00,57.9,52.1,29.97,NNW,348,0.0,0.0,81,0.00,,SKC,0.00,VWS V14.01,2013-09-02 16:17:00,
2013-09-02 11:22:00,58.0,51.9,29.96,North,5,0.0,0.0,80,0.00,,SKC,0.00,VWS V14.01,2013-09-02 16:22:00,
2013-09-02 11:27:00,58.1,52.0,29.96,North,5,0.0,0.0,80,0.00,,SKC,0.00,VWS V14.01,2013-09-02 16:27:00,
2013-09-02 11:30:00,57.0,50.9,29.97,North,355,0.0,0.0,80,0.00,,SKC,0.00,VWS V14.01,2013-09-02 16:30:00,
2013-09-02 11:32:00,58.4,52.3,29.96,NNE,19,0.0,0.0,80,0.00,,SKC,0.00,VWS V14.01,2013-09-02 16:32:00,
2013-09-02 11:37:00,58.7,52.2,29.97,NNE,19,0.0,0.0,79,0.00,,SKC,0.00,VWS V14.01,2013-09-02 16:37:00,
2013-09-02 11:42:00,59.0,52.5,29.96,NNE,19,0.0,0.0,79,0.00,,SKC,0.00,VWS V14.01,2013-09-02 16:42:00,
2013-09-02 11:47:00,59.0,52.2,29.97,NNE,19,0.0,0.0,78,0.00,,SKC,0.00,VWS V14.01,2013-09-02 16:47:00,
2013-09-02 11:52:00,59.3,52.5,29.97,NNE,18,0.0,0.0,78,0.00,,SKC,0.00,VWS V14.01,2013-09-02 16:52:00,
2013-09-02 11:57:00,59.5,52.6,29.96,NNE,18,0.0,0.0,78,0.00,,SKC,0.00,VWS V14.01,2013-09-02 16:57:00,
2013-09-02 12:00:00,57.4,52.3,29.97,NNE,13,0.0,0.0,83,0.00,,SKC,0.00,VWS V14.01,2013-09-02 17:00:00,
2013-09-02 12:02:00,59.7,52.1,29.97,NNE,18,0.0,0.0,76,0.00,,SKC,0.00,VWS V14.01,2013-09-02 17:02:00,
2013-09-02 12:07:00,59.9,53.0,29.97,NNE,21,0.0,0.0,78,0.00,,SKC,0.00,VWS V14.01,2013-09-02 17:07:00,
2013-09-02 12:12:00,60.1,52.9,29.97,NNE,18,0.0,0.0,77,0.00,,SKC,0.00,VWS V14.01,2013-09-02 17:12:00,
2013-09-02 12:17:00,60.2,52.3,29.97,NNE,17,0.0,0.0,75,0.00,,SKC,0.00,VWS V14.01,2013-09-02 17:17:00,
2013-09-02 12:22:00,60.2,52.6,29.97,NNE,17,0.0,0.0,76,0.00,,SKC,0.00,VWS V14.01,2013-09-02 17:22:00,
2013-09-02 12:27:00,60.4,52.8,29.97,NNE,17,0.0,0.0,76,0.00,,SKC,0.00,VWS V14.01,2013-09-02 17:27:00,
2013-09-02 12:30:00,58.3,52.2,29.96,NNE,19,0.0,0.0,80,0.00,,SKC,0.00,VWS V14.01,2013-09-02 17:30:00,
2013-09-02 12:33:00,60.5,52.5,29.97,NNE,17,0.0,0.0,75,0.00,,SKC,0.00,VWS V14.01,2013-09-02 17:33:00,
2013-09-02 12:38:00,60.6,52.3,29.97,NNE,17,0.0,0.0,74,0.00,,SKC,0.00,VWS V14.01,2013-09-02 17:38:00,
2013-09-02 12:43:00,60.8,52.8,29.96,NNE,16,0.0,0.0,75,0.00,,SKC,0.00,VWS V14.01,2013-09-02 17:43:00,
2013-09-02 12:48:00,61.0,52.3,29.96,NNE,16,0.0,0.0,73,0.00,,SKC,0.00,VWS V14.01,2013-09-02 17:48:00,
2013-09-02 12:53:00,61.2,53.2,29.96,NNE,16,0.0,0.0,75,0.00,,SKC,0.00,VWS V14.01,2013-09-02 17:53:00,
2013-09-02 12:58:00,61.3,52.6,29.96,NNE,16,0.0,0.0,73,0.00,,SKC,0.00,VWS V14.01,2013-09-02 17:58:00,
2013-09-02 13:00:00,59.6,52.4,29.96,NNE,18,0.0,0.0,77,0.00,,SKC,0.00,VWS V14.01,2013-09-02 18:00:00,
2013-09-02 13:03:00,61.4,52.7,29.95,NNE,16,0.0,0.0,73,0.00,,SKC,0.00,VWS V14.01,2013-09-02 18:03:00,
2013-09-02 13:08:00,61.6,53.2,29.95,NNE,16,0.0,0.0,74,0.00,,SKC,0.00,VWS V14.01,2013-09-02 18:08:00,
2013-09-02 13:13:00,61.7,53.7,29.95,NNE,17,0.0,0.0,75,0.00,,SKC,0.00,VWS V14.01,2013-09-02 18:13:00,
2013-09-02 13:18:00,61.9,53.9,29.95,NNE,17,0.0,0.0,75,0.00,,SKC,0.00,VWS V14.01,2013-09-02 18:18:00,
2013-09-02 13:23:00,62.1,53.0,29.95,NNE,16,0.0,0.0,72,0.00,,SKC,0.00,VWS V14.01,2013-09-02 18:23:00,
2013-09-02 13:28:00,62.5,53.7,29.94,NNE,16,0.0,0.0,73,0.00,,SKC,0.00,VWS V14.01,2013-09-02 18:28:00,
2013-09-02 13:30:00,60.5,52.5,29.97,NNE,17,0.0,0.0,75,0.00,,SKC,0.00,VWS V14.01,2013-09-02 18:30:00,
2013-09-02 13:33:00,62.7,53.2,29.95,NNE,15,0.0,0.0,71,0.00,,SKC,0.00,VWS V14.01,2013-09-02 18:33:00,
2013-09-02 13:38:00,62.7,53.2,29.95,NNE,15,0.0,0.0,71,0.00,,SKC,0.00,VWS V14.01,2013-09-02 18:38:00,
2013-09-02 13:43:00,62.8,53.3,29.94,NNE,15,0.0,0.0,71,0.00,,SKC,0.00,VWS V14.01,2013-09-02 18:43:00,
2013-09-02 13:48:00,62.8,52.9,29.95,NNE,15,0.0,0.0,70,0.00,,SKC,0.00,VWS V14.01,2013-09-02 18:48:00,
2013-09-02 13:53:00,63.0,53.5,29.94,NNE,15,0.0,0.0,71,0.00,,SKC,0.00,VWS V14.01,2013-09-02 18:53:00,
2013-09-02 13:58:00,63.2,53.7,29.94,NNE,15,0.0,0.0,71,0.00,,SKC,0.00,VWS V14.01,2013-09-02 18:58:00,
2013-09-02 14:00:00,61.4,53.0,29.96,NNE,16,0.0,0.0,74,0.00,,SKC,0.00,VWS V14.01,2013-09-02 19:00:00,
2013-09-02 14:03:00,63.6,53.7,29.94,NNE,15,0.0,0.0,70,0.00,,SKC,0.00,VWS V14.01,2013-09-02 19:03:00,
2013-09-02 14:09:00,64.1,54.9,29.94,NNE,14,0.0,0.0,72,0.00,,SKC,0.00,VWS V14.01,2013-09-02 19:09:00,
2013-09-02 14:14:00,64.7,54.3,29.94,NNE,14,0.0,0.0,69,0.00,,SKC,0.00,VWS V14.01,2013-09-02 19:14:00,
2013-09-02 14:19:00,65.2,54.4,29.93,NNE,14,0.0,0.0,68,0.00,,SKC,0.00,VWS V14.01,2013-09-02 19:19:00,
2013-09-02 14:24:00,65.5,54.3,29.94,NNE,14,0.0,0.0,67,0.00,,SKC,0.00,VWS V14.01,2013-09-02 19:24:00,
2013-09-02 14:29:00,65.8,54.1,29.93,NNE,14,0.0,0.0,66,0.00,,SKC,0.00,VWS V14.01,2013-09-02 19:29:00,
2013-09-02 14:30:00,62.6,53.5,29.94,NNE,16,0.0,0.0,72,0.00,,SKC,0.00,VWS V14.01,2013-09-02 19:30:00,
2013-09-02 14:34:00,65.8,53.7,29.93,NNE,16,0.0,0.0,65,0.00,,SKC,0.00,VWS V14.01,2013-09-02 19:34:00,
2013-09-02 14:39:00,65.7,54.0,29.93,NNE,18,0.0,0.0,66,0.00,,SKC,0.00,VWS V14.01,2013-09-02 19:39:00,
2013-09-02 14:44:00,66.2,54.9,29.92,NNE,17,0.0,0.0,67,0.00,,SKC,0.00,VWS V14.01,2013-09-02 19:44:00,
2013-09-02 14:49:00,67.0,55.3,29.92,NNE,14,0.0,0.0,66,0.00,,SKC,0.00,VWS V14.01,2013-09-02 19:49:00,
2013-09-02 14:54:00,67.2,55.5,29.92,NNE,15,0.0,0.0,66,0.00,,SKC,0.00,VWS V14.01,2013-09-02 19:54:00,
2013-09-02 14:59:00,66.4,53.9,29.92,NNE,22,0.0,0.0,64,0.00,,SKC,0.00,VWS V14.01,2013-09-02 19:59:00,
2013-09-02 15:00:00,63.4,53.8,29.94,NNE,15,0.0,0.0,71,0.00,,SKC,0.00,VWS V14.01,2013-09-02 20:00:00,
2013-09-02 15:04:00,66.3,54.6,29.92,NNE,22,0.0,0.0,66,0.00,,SKC,0.00,VWS V14.01,2013-09-02 20:04:00,
2013-09-02 15:09:00,66.6,53.6,29.92,NNE,22,0.0,0.0,63,0.00,,SKC,0.00,VWS V14.01,2013-09-02 20:09:00,
2013-09-02 15:14:00,66.5,54.8,29.92,NNE,22,0.0,0.0,66,0.00,,SKC,0.00,VWS V14.01,2013-09-02 20:14:00,
2013-09-02 15:19:00,66.2,54.1,29.92,NNE,20,0.0,0.0,65,0.00,,SKC,0.00,VWS V14.01,2013-09-02 20:19:00,
2013-09-02 15:24:00,65.8,53.7,29.92,NNW,338,0.0,0.0,65,0.00,,SKC,0.00,VWS V14.01,2013-09-02 20:24:00,
2013-09-02 15:29:00,65.7,54.0,29.92,NNW,338,0.0,0.0,66,0.00,,SKC,0.00,VWS V14.01,2013-09-02 20:29:00,
2013-09-02 15:30:00,65.8,54.1,29.93,NNE,15,0.0,0.0,66,0.00,,SKC,0.00,VWS V14.01,2013-09-02 20:30:00,
2013-09-02 15:34:00,65.7,54.5,29.92,NNW,338,0.0,0.0,67,0.00,,SKC,0.00,VWS V14.01,2013-09-02 20:34:00,
2013-09-02 15:39:00,65.8,54.1,29.92,NNW,338,0.0,0.0,66,0.00,,SKC,0.00,VWS V14.01,2013-09-02 20:39:00,
2013-09-02 15:45:00,65.8,54.1,29.91,NNW,338,0.0,0.0,66,0.00,,SKC,0.00,VWS V14.01,2013-09-02 20:45:00,
2013-09-02 15:50:00,66.0,54.3,29.91,NNW,339,0.0,0.0,66,0.00,,SKC,0.00,VWS V14.01,2013-09-02 20:50:00,
2013-09-02 15:55:00,66.1,54.4,29.91,NNW,339,0.0,0.0,66,0.00,,SKC,0.00,VWS V14.01,2013-09-02 20:55:00,
2013-09-02 16:00:00,66.1,54.4,29.91,NNW,340,0.0,0.0,66,0.00,,SKC,0.00,VWS V14.01,2013-09-02 21:00:00,
2013-09-02 16:05:00,66.1,54.0,29.91,NNW,340,0.0,0.0,65,0.00,,SKC,0.00,VWS V14.01,2013-09-02 21:05:00,
2013-09-02 16:10:00,66.1,53.6,29.91,NNW,340,0.0,0.0,64,0.00,,SKC,0.00,VWS V14.01,2013-09-02 21:10:00,
2013-09-02 16:15:00,66.2,54.9,29.91,NNW,340,0.0,0.0,67,0.00,,SKC,0.00,VWS V14.01,2013-09-02 21:15:00,
2013-09-02 16:20:00,66.1,54.0,29.90,NNW,340,0.0,0.0,65,0.00,,SKC,0.00,VWS V14.01,2013-09-02 21:20:00,
2013-09-02 16:25:00,66.1,54.4,29.90,NNW,345,0.0,0.0,66,0.00,,SKC,0.00,VWS V14.01,2013-09-02 21:25:00,
2013-09-02 16:30:00,66.1,53.6,29.90,NNW,346,0.0,0.0,64,0.00,,SKC,0.00,VWS V14.01,2013-09-02 21:30:00,
2013-09-02 16:35:00,65.9,53.4,29.90,North,11,0.0,0.0,64,0.00,,SKC,0.00,VWS V14.01,2013-09-02 21:35:00,
2013-09-02 16:40:00,65.8,53.7,29.90,North,11,0.0,0.0,65,0.00,,SKC,0.00,VWS V14.01,2013-09-02 21:40:00,
2013-09-02 16:46:00,65.8,53.3,29.90,North,11,0.0,0.0,64,0.00,,SKC,0.00,VWS V14.01,2013-09-02 21:46:00,
2013-09-02 16:51:00,65.9,53.4,29.90,North,11,0.0,0.0,64,0.00,,SKC,0.00,VWS V14.01,2013-09-02 21:51:00,
2013-09-02 16:56:00,65.9,53.8,29.90,North,11,0.0,0.0,65,0.00,,SKC,0.00,VWS V14.01,2013-09-02 21:56:00,
2013-09-02 17:00:00,66.1,54.0,29.91,NNW,340,0.0,0.0,65,0.00,,SKC,0.00,VWS V14.01,2013-09-02 22:00:00,
2013-09-02 17:01:00,65.9,53.8,29.90,North,11,0.0,0.0,65,0.00,,SKC,0.00,VWS V14.01,2013-09-02 22:01:00,
2013-09-02 17:06:00,65.9,54.2,29.90,North,11,0.0,0.0,66,0.00,,SKC,0.00,VWS V14.01,2013-09-02 22:06:00,
2013-09-02 17:11:00,65.9,54.7,29.90,North,11,0.0,0.0,67,0.00,,SKC,0.00,VWS V14.01,2013-09-02 22:11:00,
2013-09-02 17:16:00,65.9,53.0,29.90,North,11,0.0,0.0,63,0.00,,SKC,0.00,VWS V14.01,2013-09-02 22:16:00,
2013-09-02 17:21:00,65.8,53.7,29.90,North,11,0.0,0.0,65,0.00,,SKC,0.00,VWS V14.01,2013-09-02 22:21:00,
2013-09-02 17:27:00,65.7,53.2,29.90,North,10,0.0,0.0,64,0.00,,SKC,0.00,VWS V14.01,2013-09-02 22:27:00,
2013-09-02 17:30:00,66.0,53.5,29.90,NNW,346,0.0,0.0,64,0.00,,SKC,0.00,VWS V14.01,2013-09-02 22:30:00,
2013-09-02 17:32:00,65.7,52.3,29.90,North,10,0.0,0.0,62,0.00,,SKC,0.00,VWS V14.01,2013-09-02 22:32:00,
2013-09-02 17:37:00,65.6,52.7,29.90,North,10,0.0,0.0,63,0.00,,SKC,0.00,VWS V14.01,2013-09-02 22:37:00,
2013-09-02 17:42:00,65.6,53.5,29.89,North,11,0.0,0.0,65,0.00,,SKC,0.00,VWS V14.01,2013-09-02 22:42:00,
2013-09-02 17:47:00,65.6,53.5,29.89,North,11,0.0,0.0,65,0.00,,SKC,0.00,VWS V14.01,2013-09-02 22:47:00,
2013-09-02 17:52:00,65.5,52.6,29.90,North,11,0.0,0.0,63,0.00,,SKC,0.00,VWS V14.01,2013-09-02 22:52:00,
2013-09-02 17:57:00,65.4,52.1,29.90,North,11,0.0,0.0,62,0.00,,SKC,0.00,VWS V14.01,2013-09-02 22:57:00,
2013-09-02 18:00:00,65.9,53.4,29.90,North,11,0.0,0.0,64,0.00,,SKC,0.00,VWS V14.01,2013-09-02 23:00:00,
2013-09-02 18:03:00,65.3,52.8,29.90,North,11,0.0,0.0,64,0.00,,SKC,0.00,VWS V14.01,2013-09-02 23:03:00,
2013-09-02 18:08:00,65.2,52.7,29.90,North,11,0.0,0.0,64,0.00,,SKC,0.00,VWS V14.01,2013-09-02 23:08:00,
2013-09-02 18:13:00,65.1,53.1,29.90,North,11,0.0,0.0,65,0.00,,SKC,0.00,VWS V14.01,2013-09-02 23:13:00,
2013-09-02 18:18:00,65.0,53.8,29.90,North,11,0.0,0.0,67,0.00,,SKC,0.00,VWS V14.01,2013-09-02 23:18:00,
2013-09-02 18:23:00,64.9,53.3,29.90,North,11,0.0,0.0,66,0.00,,SKC,0.00,VWS V14.01,2013-09-02 23:23:00,
2013-09-02 18:28:00,64.8,52.8,29.90,North,11,0.0,0.0,65,0.00,,SKC,0.00,VWS V14.01,2013-09-02 23:28:00,
2013-09-02 18:30:00,65.7,53.2,29.90,North,10,0.0,0.0,64,0.00,,SKC,0.00,VWS V14.01,2013-09-02 23:30:00,
2013-09-02 18:33:00,64.7,52.7,29.90,North,11,0.0,0.0,65,0.00,,SKC,0.00,VWS V14.01,2013-09-02 23:33:00,
2013-09-02 18:38:00,64.6,53.4,29.90,North,11,0.0,0.0,67,0.00,,SKC,0.00,VWS V14.01,2013-09-02 23:38:00,
2013-09-02 18:43:00,64.5,52.5,29.90,North,11,0.0,0.0,65,0.00,,SKC,0.00,VWS V14.01,2013-09-02 23:43:00,
2013-09-02 18:48:00,64.4,52.4,29.90,North,11,0.0,0.0,65,0.00,,SKC,0.00,VWS V14.01,2013-09-02 23:48:00,
2013-09-02 18:53:00,64.2,52.2,29.90,North,11,0.0,0.0,65,0.00,,SKC,0.00,VWS V14.01,2013-09-02 23:53:00,
2013-09-02 18:58:00,64.0,52.8,29.90,North,11,0.0,0.0,67,0.00,,SKC,0.00,VWS V14.01,2013-09-02 23:58:00,
2013-09-02 19:00:00,65.3,52.8,29.90,North,11,0.0,0.0,64,0.00,,SKC,0.00,VWS V14.01,2013-09-03 00:00:00,
2013-09-02 19:03:00,63.8,52.2,29.90,North,11,0.0,0.0,66,0.00,,SKC,0.00,VWS V14.01,2013-09-03 00:03:00,
2013-09-02 19:08:00,63.6,52.5,29.90,North,11,0.0,0.0,67,0.00,,SKC,0.00,VWS V14.01,2013-09-03 00:08:00,
2013-09-02 19:14:00,63.3,52.6,29.90,North,11,0.0,0.0,68,0.00,,SKC,0.00,VWS V14.01,2013-09-03 00:14:00,
2013-09-02 19:19:00,62.9,53.0,29.90,North,11,0.0,0.0,70,0.00,,SKC,0.00,VWS V14.01,2013-09-03 00:19:00,
2013-09-02 19:24:00,62.5,52.6,29.90,North,11,0.0,0.0,70,0.00,,SKC,0.00,VWS V14.01,2013-09-03 00:24:00,
2013-09-02 19:29:00,62.1,52.2,29.90,North,11,0.0,0.0,70,0.00,,SKC,0.00,VWS V14.01,2013-09-03 00:29:00,
2013-09-02 19:30:00,64.7,53.1,29.90,North,11,0.0,0.0,66,0.00,,SKC,0.00,VWS V14.01,2013-09-03 00:30:00,
2013-09-02 19:34:00,61.8,51.9,29.90,North,11,0.0,0.0,70,0.00,,SKC,0.00,VWS V14.01,2013-09-03 00:34:00,
2013-09-02 19:39:00,61.6,51.7,29.90,North,11,0.0,0.0,70,0.00,,SKC,0.00,VWS V14.01,2013-09-03 00:39:00,
2013-09-02 19:44:00,61.5,51.6,29.90,North,11,0.0,0.0,70,0.00,,SKC,0.00,VWS V14.01,2013-09-03 00:44:00,
2013-09-02 19:49:00,61.3,51.5,29.90,North,11,0.0,0.0,70,0.00,,SKC,0.00,VWS V14.01,2013-09-03 00:49:00,
2013-09-02 19:54:00,61.1,51.6,29.90,North,11,0.0,0.0,71,0.00,,SKC,0.00,VWS V14.01,2013-09-03 00:54:00,
2013-09-02 19:59:00,60.7,51.2,29.90,North,11,0.0,0.0,71,0.00,,SKC,0.00,VWS V14.01,2013-09-03 00:59:00,
2013-09-02 20:00:00,64.0,52.4,29.90,North,11,0.0,0.0,66,0.00,,SKC,0.00,VWS V14.01,2013-09-03 01:00:00,
2013-09-02 20:04:00,60.4,51.3,29.90,North,11,0.0,0.0,72,0.00,,SKC,0.00,VWS V14.01,2013-09-03 01:04:00,
2013-09-02 20:09:00,60.2,51.5,29.90,North,11,0.0,0.0,73,0.00,,SKC,0.00,VWS V14.01,2013-09-03 01:09:00,
2013-09-02 20:14:00,59.9,51.2,29.90,North,11,0.0,0.0,73,0.00,,SKC,0.00,VWS V14.01,2013-09-03 01:14:00,
2013-09-02 20:19:00,59.8,50.8,29.90,North,11,0.0,0.0,72,0.00,,SKC,0.00,VWS V14.01,2013-09-03 01:19:00,
2013-09-02 20:24:00,59.8,51.1,29.90,North,11,0.0,0.0,73,0.00,,SKC,0.00,VWS V14.01,2013-09-03 01:24:00,
2013-09-02 20:29:00,59.8,51.5,29.90,North,11,0.0,0.0,74,0.00,,SKC,0.00,VWS V14.01,2013-09-03 01:29:00,
2013-09-02 20:30:00,62.0,52.1,29.90,North,11,0.0,0.0,70,0.00,,SKC,0.00,VWS V14.01,2013-09-03 01:30:00,
2013-09-02 20:35:00,59.6,52.0,29.90,North,11,0.0,0.0,76,0.00,,SKC,0.00,VWS V14.01,2013-09-03 01:35:00,
2013-09-02 20:40:00,59.5,52.3,29.90,North,11,0.0,0.0,77,0.00,,SKC,0.00,VWS V14.01,2013-09-03 01:40:00,
2013-09-02 20:45:00,59.4,52.5,29.90,North,11,0.0,0.0,78,0.00,,SKC,0.00,VWS V14.01,2013-09-03 01:45:00,
2013-09-02 20:50:00,59.0,52.2,29.90,North,11,0.0,0.0,78,0.00,,SKC,0.00,VWS V14.01,2013-09-03 01:50:00,
2013-09-02 20:55:00,58.9,52.8,29.90,North,11,0.0,0.0,80,0.00,,SKC,0.00,VWS V14.01,2013-09-03 01:55:00,
2013-09-02 21:00:00,58.5,52.7,29.90,North,11,0.0,0.0,81,0.00,,SKC,0.00,VWS V14.01,2013-09-03 02:00:00,
2013-09-02 21:05:00,58.3,53.2,29.90,North,11,0.0,0.0,83,0.00,,SKC,0.00,VWS V14.01,2013-09-03 02:05:00,
2013-09-02 21:10:00,58.0,53.2,29.91,North,11,0.0,0.0,84,0.00,,SKC,0.00,VWS V14.01,2013-09-03 02:10:00,
2013-09-02 21:15:00,57.7,52.9,29.91,North,11,0.0,0.0,84,0.00,,SKC,0.00,VWS V14.01,2013-09-03 02:15:00,
2013-09-02 21:20:00,57.5,53.0,29.91,North,11,0.0,0.0,85,0.00,,SKC,0.00,VWS V14.01,2013-09-03 02:20:00,
2013-09-02 21:25:00,57.3,53.2,29.91,North,11,0.0,0.0,86,0.00,,SKC,0.00,VWS V14.01,2013-09-03 02:25:00,
2013-09-02 21:30:00,57.2,53.1,29.91,North,11,0.0,0.0,86,0.00,,SKC,0.00,VWS V14.01,2013-09-03 02:30:00,
2013-09-02 21:35:00,57.0,52.9,29.91,North,11,0.0,0.0,86,0.00,,SKC,0.00,VWS V14.01,2013-09-03 02:35:00,
2013-09-02 21:40:00,56.9,53.1,29.91,North,11,0.0,0.0,87,0.00,,SKC,0.00,VWS V14.01,2013-09-03 02:40:00,
2013-09-02 21:45:00,56.9,53.1,29.91,North,11,0.0,0.0,87,0.00,,SKC,0.00,VWS V14.01,2013-09-03 02:45:00,
2013-09-02 21:50:00,56.8,53.3,29.90,North,11,0.0,0.0,88,0.00,,SKC,0.00,VWS V14.01,2013-09-03 02:50:00,
2013-09-02 21:55:00,56.6,53.1,29.91,North,11,0.0,0.0,88,0.00,,SKC,0.00,VWS V14.01,2013-09-03 02:55:00,
2013-09-02 22:00:00,56.3,52.8,29.91,North,11,0.0,0.0,88,0.00,,SKC,0.00,VWS V14.01,2013-09-03 03:00:00,
2013-09-02 22:06:00,55.9,52.7,29.91,North,11,0.0,0.0,89,0.00,,SKC,0.00,VWS V14.01,2013-09-03 03:06:00,
2013-09-02 22:11:00,55.6,52.4,29.91,North,11,0.0,0.0,89,0.00,,SKC,0.00,VWS V14.01,2013-09-03 03:11:00,
2013-09-02 22:16:00,55.3,52.1,29.91,North,11,0.0,0.0,89,0.00,,SKC,0.00,VWS V14.01,2013-09-03 03:16:00,
2013-09-02 22:21:00,54.9,51.7,29.91,North,11,0.0,0.0,89,0.00,,SKC,0.00,VWS V14.01,2013-09-03 03:21:00,
2013-09-02 22:26:00,54.5,51.3,29.91,North,11,0.0,0.0,89,0.00,,SKC,0.00,VWS V14.01,2013-09-03 03:26:00,
2013-09-02 22:30:00,57.2,53.1,29.91,North,11,0.0,0.0,86,0.00,,SKC,0.00,VWS V14.01,2013-09-03 03:30:00,
2013-09-02 22:31:00,54.2,51.3,29.92,North,11,0.0,0.0,90,0.00,,SKC,0.00,VWS V14.01,2013-09-03 03:31:00,
2013-09-02 22:36:00,53.9,51.0,29.92,North,11,0.0,0.0,90,0.00,,SKC,0.00,VWS V14.01,2013-09-03 03:36:00,
2013-09-02 22:41:00,53.6,50.7,29.92,North,11,0.0,0.0,90,0.00,,SKC,0.00,VWS V14.01,2013-09-03 03:41:00,
2013-09-02 22:46:00,53.1,50.2,29.92,North,11,0.0,0.0,90,0.00,,SKC,0.00,VWS V14.01,2013-09-03 03:46:00,
2013-09-02 22:51:00,52.8,50.2,29.92,North,11,0.0,0.0,91,0.00,,SKC,0.00,VWS V14.01,2013-09-03 03:51:00,
2013-09-02 22:56:00,52.7,50.2,29.92,North,11,0.0,0.0,91,0.00,,SKC,0.00,VWS V14.01,2013-09-03 03:56:00,
2013-09-02 23:00:00,56.3,52.8,29.91,North,11,0.0,0.0,88,0.00,,SKC,0.00,VWS V14.01,2013-09-03 04:00:00,
2013-09-02 23:01:00,52.6,50.0,29.92,North,11,0.0,0.0,91,0.00,,SKC,0.00,VWS V14.01,2013-09-03 04:01:00,
2013-09-02 23:02:00,52.5,50.0,29.92,North,11,0.0,0.0,91,0.00,,SKC,0.00,VWS V14.01,2013-09-03 04:02:00,
2013-09-02 23:08:00,52.3,49.8,29.92,North,11,0.0,0.0,91,0.00,,SKC,0.00,VWS V14.01,2013-09-03 04:08:00,
2013-09-02 23:10:00,52.2,49.7,29.92,North,11,0.0,0.0,91,0.00,,SKC,0.00,VWS V14.01,2013-09-03 04:10:00,
2013-09-02 23:15:00,52.1,49.8,29.92,North,11,0.0,0.0,92,0.00,,SKC,0.00,VWS V14.01,2013-09-03 04:15:00,
2013-09-02 23:16:00,52.1,49.8,29.92,North,11,0.0,0.0,92,0.00,,SKC,0.00,VWS V14.01,2013-09-03 04:16:00,
2013-09-02 23:20:00,52.0,49.8,29.92,North,11,0.0,0.0,92,0.00,,SKC,0.00,VWS V14.01,2013-09-03 04:20:00,
2013-09-02 23:25:00,52.1,50.1,29.92,North,11,0.0,0.0,93,0.00,,SKC,0.00,VWS V14.01,2013-09-03 04:25:00,
2013-09-02 23:30:00,52.0,50.0,29.92,North,11,0.0,0.0,93,0.00,,SKC,0.00,VWS V14.01,2013-09-03 04:30:00,
2013-09-02 23:35:00,51.9,49.9,29.92,North,11,0.0,0.0,93,0.00,,SKC,0.00,VWS V14.01,2013-09-03 04:35:00,
2013-09-02 23:40:00,51.9,49.9,29.92,North,11,0.0,0.0,93,0.00,,SKC,0.00,VWS V14.01,2013-09-03 04:40:00,
2013-09-02 23:45:00,51.8,49.8,29.92,North,11,0.0,0.0,93,0.00,,SKC,0.00,VWS V14.01,2013-09-03 04:45:00,
2013-09-02 23:50:00,51.6,49.7,29.92,North,11,0.0,0.0,93,0.00,,SKC,0.00,VWS V14.01,2013-09-03 04:50:00,
2013-09-02 23:55:00,51.4,49.5,29.92,North,11,0.0,0.0,93,0.00,,SKC,0.00,VWS V14.01,2013-09-03 04:55:00,